Time,TemperatureF,DewpointF,PressureIn,WindDirection,WindDirectionDegrees,WindSpeedMPH,WindSpeedGustMPH,Humidity,HourlyPrecipIn,Conditions,Clouds,dailyrainin,SoftwareType,DateUTC
2013-09-04 00:02:00,66.7,63.7,30.04,NE,51,7.0,7.0,90,0.00,,,0.00,Wunderground v.1.15,2013-09-04 05:02:00,
2013-09-04 00:08:00,66.6,63.3,30.04,NE,39,9.0,9.0,89,0.00,,,0.00,Wunderground v.1.15,2013-09-04 05:08:00,
2013-09-04 00:14:00,66.4,63.4,30.04,NE,43,9.0,9.0,90,0.00,,,0.00,Wunderground v.1.15,2013-09-04 05:14:00,
2013-09-04 00:20:00,66.2,63.2,30.04,NE,36,9.0,9.0,90,0.00,,,0.00,Wunderground v.1.15,2013-09-04 05:20:00,
2013-09-04 00:26:00,66.1,63.1,30.05,NE,42,7.0,10.0,90,0.00,,,0.00,Wunderground v.1.15,2013-09-04 05:26:00,
2013-09-04 00:31:00,65.9,62.9,30.04,NE,40,7.0,8.0,90,0.00,,,0.00,Wunderground v.1.15,2013-09-04 05:31:00,
2013-09-04 00:37:00,65.8,63.1,30.05,NE,40,7.0,8.0,91,0.00,,,0.00,Wunderground v.1.15,2013-09-04 05:37:00,
2013-09-04 00:43:00,65.6,62.9,30.04,NE,39,6.0,7.0,91,0.00,,,0.00,Wunderground v.1.15,2013-09-04 05:43:00,
2013-09-04 00:49:00,65.5,62.8,30.04,NE,40,6.0,7.0,91,0.00,,,0.00,Wunderground v.1.15,2013-09-04 05:49:00,
2013-09-04 00:54:00,65.4,62.7,30.04,NE,36,7.0,8.0,91,0.00,,,0.00,Wunderground v.1.15,2013-09-04 05:54:00,
2013-09-04 01:00:00,65.3,62.6,30.04,NE,36,7.0,7.0,91,0.00,,,0.00,Wunderground v.1.15,2013-09-04 06:00:00,
2013-09-04 01:06:00,65.2,62.8,30.04,NE,42,9.0,9.0,92,0.00,,,0.00,Wunderground v.1.15,2013-09-04 06:06:00,
2013-09-04 01:12:00,65.2,62.8,30.04,NE,44,10.0,10.0,92,0.00,,,0.00,Wunderground v.1.15,2013-09-04 06:12:00,
2013-09-04 01:17:00,65.1,62.7,30.04,NE,44,9.0,10.0,92,0.00,,,0.00,Wunderground v.1.15,2013-09-04 06:17:00,
2013-09-04 01:23:00,65.1,62.7,30.03,NE,47,10.0,10.0,92,0.00,,,0.00,Wunderground v.1.15,2013-09-04 06:23:00,
2013-09-04 01:29:00,65.1,62.7,30.04,NE,40,10.0,10.0,92,0.00,,,0.00,Wunderground v.1.15,2013-09-04 06:29:00,
2013-09-04 01:35:00,65.2,62.8,30.03,NE,43,11.0,11.0,92,0.00,,,0.00,Wunderground v.1.15,2013-09-04 06:35:00,
2013-09-04 01:40:00,65.2,62.5,30.04,NE,45,11.0,11.0,91,0.00,,,0.00,Wunderground v.1.15,2013-09-04 06:40:00,
2013-09-04 01:46:00,65.2,62.5,30.04,NE,44,11.0,11.0,91,0.00,,,0.00,Wunderground v.1.15,2013-09-04 06:46:00,
2013-09-04 01:52:00,65.2,62.5,30.04,NE,42,11.0,12.0,91,0.00,,,0.00,Wunderground v.1.15,2013-09-04 06:52:00,
2013-09-04 01:58:00,65.3,62.6,30.03,NE,39,10.0,12.0,91,0.00,,,0.00,Wunderground v.1.15,2013-09-04 06:58:00,
2013-09-04 02:03:00,65.2,62.5,30.03,NE,37,11.0,12.0,91,0.00,,,0.00,Wunderground v.1.15,2013-09-04 07:03:00,
2013-09-04 02:08:00,65.2,62.5,30.03,NE,40,11.0,12.0,91,0.00,,,0.00,Wunderground v.1.15,2013-09-04 07:08:00,
2013-09-04 02:13:00,65.1,62.4,30.03,NE,45,12.0,12.0,91,0.00,,,0.00,Wunderground v.1.15,2013-09-04 07:13:00,
2013-09-04 02:18:00,65.1,62.4,30.04,NE,45,10.0,12.0,91,0.00,,,0.00,Wunderground v.1.15,2013-09-04 07:18:00,
2013-09-04 02:23:00,65.1,62.4,30.03,NE,47,11.0,12.0,91,0.00,,,0.00,Wunderground v.1.15,2013-09-04 07:23:00,
2013-09-04 02:28:00,65.0,62.3,30.03,NE,45,12.0,13.0,91,0.00,,,0.00,Wunderground v.1.15,2013-09-04 07:28:00,
2013-09-04 02:33:00,64.9,62.2,30.04,NE,44,12.0,13.0,91,0.00,,,0.00,Wunderground v.1.15,2013-09-04 07:33:00,
2013-09-04 02:38:00,64.9,62.2,30.03,NE,45,11.0,13.0,91,0.00,,,0.00,Wunderground v.1.15,2013-09-04 07:38:00,
2013-09-04 02:43:00,64.9,62.2,30.04,NE,42,11.0,12.0,91,0.00,,,0.00,Wunderground v.1.15,2013-09-04 07:43:00,
2013-09-04 02:48:00,64.9,62.2,30.03,NE,44,12.0,12.0,91,0.00,,,0.00,Wunderground v.1.15,2013-09-04 07:48:00,
2013-09-04 02:53:00,64.8,62.1,30.04,NE,45,11.0,12.0,91,0.00,,,0.00,Wunderground v.1.15,2013-09-04 07:53:00,
2013-09-04 02:58:00,64.7,62.0,30.03,NE,47,11.0,12.0,91,0.00,,,0.00,Wunderground v.1.15,2013-09-04 07:58:00,
2013-09-04 03:03:00,64.7,62.0,30.03,NE,45,11.0,12.0,91,0.00,,,0.00,Wunderground v.1.15,2013-09-04 08:03:00,
2013-09-04 03:08:00,64.6,61.9,30.04,NE,46,11.0,12.0,91,0.00,,,0.00,Wunderground v.1.15,2013-09-04 08:08:00,
2013-09-04 03:13:00,64.5,61.8,30.03,NE,44,12.0,12.0,91,0.00,,,0.00,Wunderground v.1.15,2013-09-04 08:13:00,
2013-09-04 03:18:00,64.4,61.7,30.03,NE,42,11.0,12.0,91,0.00,,,0.00,Wunderground v.1.15,2013-09-04 08:18:00,
2013-09-04 03:23:00,64.3,61.6,30.04,NE,42,11.0,12.0,91,0.00,,,0.00,Wunderground v.1.15,2013-09-04 08:23:00,
2013-09-04 03:28:00,64.3,61.6,30.03,NE,42,10.0,12.0,91,0.00,,,0.00,Wunderground v.1.15,2013-09-04 08:28:00,
2013-09-04 03:33:00,64.1,61.4,30.04,NE,38,10.0,11.0,91,0.00,,,0.00,Wunderground v.1.15,2013-09-04 08:33:00,
2013-09-04 03:38:00,64.0,61.3,30.04,NE,35,10.0,11.0,91,0.00,,,0.00,Wunderground v.1.15,2013-09-04 08:38:00,
2013-09-04 03:43:00,63.9,61.2,30.04,NE,36,10.0,11.0,91,0.00,,,0.00,Wunderground v.1.15,2013-09-04 08:43:00,
2013-09-04 03:48:00,63.8,61.1,30.04,NE,39,10.0,11.0,91,0.00,,,0.00,Wunderground v.1.15,2013-09-04 08:48:00,
2013-09-04 03:53:00,63.7,61.0,30.03,NE,38,10.0,10.0,91,0.00,,,0.00,Wunderground v.1.15,2013-09-04 08:53:00,
2013-09-04 03:58:00,63.6,60.9,30.03,NE,41,10.0,11.0,91,0.00,,,0.00,Wunderground v.1.15,2013-09-04 08:58:00,
2013-09-04 04:03:00,63.5,60.8,30.04,NE,36,10.0,10.0,91,0.00,,,0.00,Wunderground v.1.15,2013-09-04 09:03:00,
2013-09-04 04:08:00,63.4,60.7,30.04,NE,40,10.0,11.0,91,0.00,,,0.00,Wunderground v.1.15,2013-09-04 09:08:00,
2013-09-04 04:13:00,63.3,60.6,30.04,NE,38,10.0,10.0,91,0.00,,,0.00,Wunderground v.1.15,2013-09-04 09:13:00,
2013-09-04 04:18:00,63.2,60.5,30.04,NE,40,10.0,11.0,91,0.00,,,0.00,Wunderground v.1.15,2013-09-04 09:18:00,
2013-09-04 04:23:00,63.1,60.4,30.03,NE,39,9.0,10.0,91,0.00,,,0.00,Wunderground v.1.15,2013-09-04 09:23:00,
2013-09-04 04:28:00,63.1,60.4,30.04,NE,38,10.0,10.0,91,0.00,,,0.00,Wunderground v.1.15,2013-09-04 09:28:00,
2013-09-04 04:33:00,63.0,60.3,30.04,NE,39,10.0,10.0,91,0.00,,,0.00,Wunderground v.1.15,2013-09-04 09:33:00,
2013-09-04 04:38:00,62.9,60.2,30.04,NE,38,9.0,10.0,91,0.00,,,0.00,Wunderground v.1.15,2013-09-04 09:38:00,
2013-09-04 04:43:00,62.8,60.1,30.04,NE,43,8.0,10.0,91,0.00,,,0.00,Wunderground v.1.15,2013-09-04 09:43:00,
2013-09-04 04:48:00,62.7,60.0,30.03,NE,43,9.0,10.0,91,0.00,,,0.00,Wunderground v.1.15,2013-09-04 09:48:00,
2013-09-04 04:53:00,62.6,59.9,30.04,NE,42,9.0,10.0,91,0.00,,,0.00,Wunderground v.1.15,2013-09-04 09:53:00,
2013-09-04 04:58:00,62.5,60.1,30.04,NE,42,9.0,10.0,92,0.00,,,0.00,Wunderground v.1.15,2013-09-04 09:58:00,
2013-09-04 05:03:00,62.3,59.9,30.04,NE,39,9.0,9.0,92,0.00,,,0.00,Wunderground v.1.15,2013-09-04 10:03:00,
2013-09-04 05:08:00,62.2,59.8,30.04,NE,37,9.0,10.0,92,0.00,,,0.00,Wunderground v.1.15,2013-09-04 10:08:00,
2013-09-04 05:13:00,62.1,59.7,30.04,NE,36,9.0,9.0,92,0.00,,,0.00,Wunderground v.1.15,2013-09-04 10:13:00,
2013-09-04 05:18:00,62.0,59.6,30.04,NE,37,9.0,9.0,92,0.00,,,0.00,Wunderground v.1.15,2013-09-04 10:18:00,
2013-09-04 05:23:00,61.9,59.5,30.04,NE,38,9.0,10.0,92,0.00,,,0.00,Wunderground v.1.15,2013-09-04 10:23:00,
2013-09-04 05:28:00,61.7,59.4,30.05,NE,45,10.0,10.0,92,0.00,,,0.00,Wunderground v.1.15,2013-09-04 10:28:00,
2013-09-04 05:33:00,61.6,59.3,30.04,NE,47,10.0,10.0,92,0.00,,,0.00,Wunderground v.1.15,2013-09-04 10:33:00,
2013-09-04 05:38:00,61.5,59.2,30.05,NE,47,10.0,10.0,92,0.00,,,0.00,Wunderground v.1.15,2013-09-04 10:38:00,
2013-09-04 05:43:00,61.4,59.1,30.05,NE,53,10.0,11.0,92,0.00,,,0.00,Wunderground v.1.15,2013-09-04 10:43:00,
2013-09-04 05:48:00,61.3,59.0,30.05,NE,53,11.0,12.0,92,0.00,,,0.00,Wunderground v.1.15,2013-09-04 10:48:00,
2013-09-04 05:53:00,61.2,58.9,30.06,NE,49,10.0,11.0,92,0.00,,,0.00,Wunderground v.1.15,2013-09-04 10:53:00,
2013-09-04 05:58:00,61.1,59.1,30.05,NE,49,9.0,11.0,93,0.00,,,0.00,Wunderground v.1.15,2013-09-04 10:58:00,
2013-09-04 06:03:00,61.0,59.0,30.06,NE,51,10.0,10.0,93,0.00,,,0.00,Wunderground v.1.15,2013-09-04 11:03:00,
2013-09-04 06:08:00,60.9,58.9,30.06,NE,51,9.0,10.0,93,0.00,,,0.00,Wunderground v.1.15,2013-09-04 11:08:00,
2013-09-04 06:13:00,60.8,58.8,30.06,West,279,10.0,10.0,93,0.00,,,0.00,Wunderground v.1.15,2013-09-04 11:13:00,
2013-09-04 06:18:00,60.8,58.8,30.07,NE,51,10.0,10.0,93,0.00,,,0.00,Wunderground v.1.15,2013-09-04 11:18:00,
2013-09-04 06:23:00,60.6,58.6,30.06,NE,51,10.0,11.0,93,0.00,,,0.00,Wunderground v.1.15,2013-09-04 11:23:00,
2013-09-04 06:28:00,60.6,58.6,30.07,NE,51,9.0,11.0,93,0.00,,,0.00,Wunderground v.1.15,2013-09-04 11:28:00,
2013-09-04 06:33:00,60.5,58.5,30.07,West,279,9.0,11.0,93,0.00,,,0.00,Wunderground v.1.15,2013-09-04 11:33:00,
2013-09-04 06:38:00,60.5,58.5,30.07,NE,51,9.0,11.0,93,0.00,,,0.00,Wunderground v.1.15,2013-09-04 11:38:00,
2013-09-04 06:43:00,60.5,58.8,30.07,NE,48,8.0,10.0,94,0.00,,,0.00,Wunderground v.1.15,2013-09-04 11:43:00,
2013-09-04 06:48:00,60.5,58.8,30.08,NE,42,7.0,10.0,94,0.00,,,0.00,Wunderground v.1.15,2013-09-04 11:48:00,
2013-09-04 06:53:00,60.6,58.9,30.07,NE,38,9.0,9.0,94,0.00,,,0.00,Wunderground v.1.15,2013-09-04 11:53:00,
2013-09-04 06:58:00,60.6,58.9,30.08,NE,36,7.0,10.0,94,0.00,,,0.00,Wunderground v.1.15,2013-09-04 11:58:00,
2013-09-04 07:03:00,60.7,59.0,30.08,NE,36,7.0,9.0,94,0.00,,,0.00,Wunderground v.1.15,2013-09-04 12:03:00,
2013-09-04 07:08:00,60.8,59.1,30.08,NE,37,9.0,9.0,94,0.00,,,0.00,Wunderground v.1.15,2013-09-04 12:08:00,
2013-09-04 07:13:00,61.0,59.3,30.09,NE,36,9.0,10.0,94,0.00,,,0.00,Wunderground v.1.15,2013-09-04 12:13:00,
2013-09-04 07:18:00,61.2,59.8,30.09,NE,34,7.0,10.0,95,0.00,,,0.00,Wunderground v.1.15,2013-09-04 12:18:00,
2013-09-04 07:23:00,61.5,60.1,30.09,NNE,32,6.0,8.0,95,0.00,,,0.00,Wunderground v.1.15,2013-09-04 12:23:00,
2013-09-04 07:28:00,62.0,60.6,30.09,NE,34,6.0,8.0,95,0.00,,,0.00,Wunderground v.1.15,2013-09-04 12:28:00,
2013-09-04 07:33:00,62.4,60.9,30.09,NNE,29,6.0,9.0,95,0.00,,,0.00,Wunderground v.1.15,2013-09-04 12:33:00,
2013-09-04 07:38:00,62.9,61.4,30.10,NNE,31,7.0,9.0,95,0.00,,,0.00,Wunderground v.1.15,2013-09-04 12:38:00,
2013-09-04 07:43:00,63.4,61.6,30.09,NE,34,7.0,9.0,94,0.00,,,0.00,Wunderground v.1.15,2013-09-04 12:43:00,
2013-09-04 07:48:00,64.0,61.6,30.09,NE,38,7.0,10.0,92,0.00,,,0.00,Wunderground v.1.15,2013-09-04 12:48:00,
2013-09-04 07:53:00,64.5,61.5,30.10,NE,43,8.0,10.0,90,0.00,,,0.00,Wunderground v.1.15,2013-09-04 12:53:00,
2013-09-04 07:58:00,65.0,62.0,30.10,NE,44,6.0,10.0,90,0.00,,,0.00,Wunderground v.1.15,2013-09-04 12:58:00,
2013-09-04 08:03:00,65.6,61.9,30.10,NE,46,6.0,9.0,88,0.00,,,0.00,Wunderground v.1.15,2013-09-04 13:03:00,
2013-09-04 08:08:00,66.2,62.2,30.10,NE,50,6.0,9.0,87,0.00,,,0.00,Wunderground v.1.15,2013-09-04 13:08:00,
2013-09-04 08:13:00,66.9,62.2,30.10,NE,47,6.0,6.0,85,0.00,,,0.00,Wunderground v.1.15,2013-09-04 13:13:00,
2013-09-04 08:18:00,67.7,62.3,30.10,NE,47,5.0,7.0,83,0.00,,,0.00,Wunderground v.1.15,2013-09-04 13:18:00,
2013-09-04 08:23:00,68.4,63.0,30.10,NE,49,4.0,5.0,83,0.00,,,0.00,Wunderground v.1.15,2013-09-04 13:23:00,
2013-09-04 08:28:00,69.2,63.1,30.10,NE,50,3.0,5.0,81,0.00,,,0.00,Wunderground v.1.15,2013-09-04 13:28:00,
2013-09-04 08:33:00,70.1,63.6,30.10,NE,38,4.0,5.0,80,0.00,,,0.00,Wunderground v.1.15,2013-09-04 13:33:00,
2013-09-04 08:38:00,70.9,63.7,30.10,NE,47,2.0,5.0,78,0.00,,,0.00,Wunderground v.1.15,2013-09-04 13:38:00,
2013-09-04 08:43:00,71.5,63.5,30.10,NE,47,3.0,4.0,76,0.00,,,0.00,Wunderground v.1.15,2013-09-04 13:43:00,
2013-09-04 08:48:00,72.0,64.0,30.10,NE,47,1.0,4.0,76,0.00,,,0.00,Wunderground v.1.15,2013-09-04 13:48:00,
2013-09-04 08:53:00,72.7,64.7,30.11,NE,48,0.0,3.0,76,0.00,,,0.00,Wunderground v.1.15,2013-09-04 13:53:00,
2013-09-04 08:58:00,73.2,64.4,30.11,NE,45,0.0,3.0,74,0.00,,,0.00,Wunderground v.1.15,2013-09-04 13:58:00,
2013-09-04 09:03:00,73.6,64.4,30.11,NE,47,2.0,3.0,73,0.00,,,0.00,Wunderground v.1.15,2013-09-04 14:03:00,
2013-09-04 09:08:00,74.1,64.5,30.12,NE,46,1.0,3.0,72,0.00,,,0.00,Wunderground v.1.15,2013-09-04 14:08:00,
2013-09-04 09:13:00,74.5,64.9,30.12,NE,47,1.0,1.0,72,0.00,,,0.00,Wunderground v.1.15,2013-09-04 14:13:00,
2013-09-04 09:18:00,74.9,64.9,30.13,NE,45,0.0,3.0,71,0.00,,,0.00,Wunderground v.1.15,2013-09-04 14:18:00,
2013-09-04 09:23:00,75.1,65.5,30.12,NE,47,0.0,2.0,72,0.00,,,0.00,Wunderground v.1.15,2013-09-04 14:23:00,
2013-09-04 09:28:00,75.5,64.6,30.12,NE,47,2.0,3.0,69,0.00,,,0.00,Wunderground v.1.15,2013-09-04 14:28:00,
2013-09-04 09:33:00,76.0,65.5,30.12,NE,47,0.0,4.0,70,0.00,,,0.00,Wunderground v.1.15,2013-09-04 14:33:00,
2013-09-04 09:38:00,76.3,65.4,30.12,NE,46,4.0,5.0,69,0.00,,,0.00,Wunderground v.1.15,2013-09-04 14:38:00,
2013-09-04 09:43:00,76.3,65.0,30.12,NNE,22,2.0,5.0,68,0.00,,,0.00,Wunderground v.1.15,2013-09-04 14:43:00,
2013-09-04 09:48:00,76.4,64.2,30.12,NNE,20,4.0,6.0,66,0.00,,,0.00,Wunderground v.1.15,2013-09-04 14:48:00,
2013-09-04 09:53:00,76.7,64.0,30.12,North,357,3.0,8.0,65,0.00,,,0.00,Wunderground v.1.15,2013-09-04 14:53:00,
2013-09-04 09:58:00,76.6,63.5,30.13,NE,38,5.0,9.0,64,0.00,,,0.00,Wunderground v.1.15,2013-09-04 14:58:00,
2013-09-04 10:03:00,76.6,63.5,30.13,NNE,22,4.0,7.0,64,0.00,,,0.00,Wunderground v.1.15,2013-09-04 15:03:00,
2013-09-04 10:08:00,76.8,63.7,30.13,NNE,13,5.0,7.0,64,0.00,,,0.00,Wunderground v.1.15,2013-09-04 15:08:00,
2013-09-04 10:13:00,76.9,63.3,30.13,North,9,4.0,9.0,63,0.00,,,0.00,Wunderground v.1.15,2013-09-04 15:13:00,
2013-09-04 10:18:00,76.9,63.3,30.13,North,11,3.0,9.0,63,0.00,,,0.00,Wunderground v.1.15,2013-09-04 15:18:00,
2013-09-04 10:23:00,77.0,64.3,30.13,NE,44,7.0,11.0,65,0.00,,,0.00,Wunderground v.1.15,2013-09-04 15:23:00,
2013-09-04 10:28:00,77.2,64.5,30.13,North,7,6.0,11.0,65,0.00,,,0.00,Wunderground v.1.15,2013-09-04 15:28:00,
2013-09-04 10:33:00,77.3,64.2,30.13,NNE,22,9.0,9.0,64,0.00,,,0.00,Wunderground v.1.15,2013-09-04 15:33:00,
2013-09-04 10:38:00,77.1,64.4,30.13,NNE,24,10.0,10.0,65,0.00,,,0.00,Wunderground v.1.15,2013-09-04 15:38:00,
2013-09-04 10:43:00,77.1,64.4,30.14,NNE,23,9.0,11.0,65,0.00,,,0.00,Wunderground v.1.15,2013-09-04 15:43:00,
2013-09-04 10:48:00,77.0,65.2,30.13,NE,34,6.0,12.0,67,0.00,,,0.00,Wunderground v.1.15,2013-09-04 15:48:00,
2013-09-04 10:53:00,77.1,65.3,30.13,NNE,21,6.0,10.0,67,0.00,,,0.00,Wunderground v.1.15,2013-09-04 15:53:00,
2013-09-04 10:58:00,76.9,64.2,30.14,NNE,32,7.0,11.0,65,0.00,,,0.00,Wunderground v.1.15,2013-09-04 15:58:00,
2013-09-04 11:03:00,76.6,64.0,30.14,NNW,343,7.0,13.0,65,0.00,,,0.00,Wunderground v.1.15,2013-09-04 16:03:00,
2013-09-04 11:08:00,76.2,64.9,30.14,NNE,15,11.0,13.0,68,0.00,,,0.00,Wunderground v.1.15,2013-09-04 16:08:00,
2013-09-04 11:13:00,76.2,63.6,30.14,North,356,10.0,12.0,65,0.00,,,0.00,Wunderground v.1.15,2013-09-04 16:13:00,
2013-09-04 11:18:00,76.0,62.5,30.14,North,357,6.0,12.0,63,0.00,,,0.00,Wunderground v.1.15,2013-09-04 16:18:00,
2013-09-04 11:23:00,76.0,62.5,30.14,North,354,5.0,11.0,63,0.00,,,0.00,Wunderground v.1.15,2013-09-04 16:23:00,
2013-09-04 11:28:00,76.3,63.2,30.13,NNW,339,12.0,12.0,64,0.00,,,0.00,Wunderground v.1.15,2013-09-04 16:28:00,
2013-09-04 11:33:00,76.7,63.2,30.13,NNW,335,9.0,12.0,63,0.00,,,0.00,Wunderground v.1.15,2013-09-04 16:33:00,
2013-09-04 11:38:00,77.2,62.7,30.13,NW,320,6.0,12.0,61,0.00,,,0.00,Wunderground v.1.15,2013-09-04 16:38:00,
2013-09-04 11:43:00,77.7,62.7,30.13,NNE,22,10.0,13.0,60,0.00,,,0.00,Wunderground v.1.15,2013-09-04 16:43:00,
2013-09-04 11:48:00,77.8,62.3,30.13,NNW,341,7.0,13.0,59,0.00,,,0.00,Wunderground v.1.15,2013-09-04 16:48:00,
2013-09-04 11:53:00,77.9,61.9,30.13,NW,304,4.0,11.0,58,0.00,,,0.00,Wunderground v.1.15,2013-09-04 16:53:00,
2013-09-04 11:58:00,77.9,61.9,30.13,NNE,20,5.0,11.0,58,0.00,,,0.00,Wunderground v.1.15,2013-09-04 16:58:00,
2013-09-04 12:03:00,77.9,62.9,30.13,NNE,24,7.0,9.0,60,0.00,,,0.00,Wunderground v.1.15,2013-09-04 17:03:00,
2013-09-04 12:08:00,78.1,63.1,30.13,NNE,31,12.0,13.0,60,0.00,,,0.00,Wunderground v.1.15,2013-09-04 17:08:00,
2013-09-04 12:13:00,78.4,63.4,30.12,NNE,12,6.0,9.0,60,0.00,,,0.00,Wunderground v.1.15,2013-09-04 17:13:00,
2013-09-04 12:18:00,78.6,62.1,30.12,North,11,4.0,10.0,57,0.00,,,0.00,Wunderground v.1.15,2013-09-04 17:18:00,
2013-09-04 12:23:00,78.6,62.6,30.12,North,5,6.0,12.0,58,0.00,,,0.00,Wunderground v.1.15,2013-09-04 17:23:00,
2013-09-04 12:28:00,78.5,62.5,30.13,NNE,18,5.0,12.0,58,0.00,,,0.00,Wunderground v.1.15,2013-09-04 17:28:00,
2013-09-04 12:33:00,78.4,60.9,30.12,NE,49,6.0,7.0,55,0.00,,,0.00,Wunderground v.1.15,2013-09-04 17:33:00,
2013-09-04 12:38:00,78.5,63.0,30.12,North,8,6.0,9.0,59,0.00,,,0.00,Wunderground v.1.15,2013-09-04 17:38:00,
2013-09-04 12:43:00,78.7,61.7,30.12,NNE,24,11.0,13.0,56,0.00,,,0.00,Wunderground v.1.15,2013-09-04 17:43:00,
2013-09-04 12:48:00,78.8,62.3,30.12,North,4,7.0,13.0,57,0.00,,,0.00,Wunderground v.1.15,2013-09-04 17:48:00,
2013-09-04 12:53:00,78.8,62.8,30.12,NE,47,6.0,10.0,58,0.00,,,0.00,Wunderground v.1.15,2013-09-04 17:53:00,
2013-09-04 12:58:00,79.0,63.0,30.12,NE,36,7.0,10.0,58,0.00,,,0.00,Wunderground v.1.15,2013-09-04 17:58:00,
2013-09-04 13:03:00,79.1,62.1,30.12,NE,34,7.0,12.0,56,0.00,,,0.00,Wunderground v.1.15,2013-09-04 18:03:00,
2013-09-04 13:08:00,79.4,62.8,30.11,NNE,28,8.0,12.0,57,0.00,,,0.00,Wunderground v.1.15,2013-09-04 18:08:00,
2013-09-04 13:13:00,79.7,62.6,30.11,North,355,3.0,11.0,56,0.00,,,0.00,Wunderground v.1.15,2013-09-04 18:13:00,
2013-09-04 13:18:00,79.9,61.8,30.11,WNW,288,5.0,11.0,54,0.00,,,0.00,Wunderground v.1.15,2013-09-04 18:18:00,
2013-09-04 13:23:00,80.0,61.3,30.12,North,358,5.0,6.0,53,0.00,,,0.00,Wunderground v.1.15,2013-09-04 18:23:00,
2013-09-04 13:28:00,80.1,62.5,30.11,North,7,5.0,10.0,55,0.00,,,0.00,Wunderground v.1.15,2013-09-04 18:28:00,
2013-09-04 13:33:00,80.2,61.5,30.11,NW,317,5.0,10.0,53,0.00,,,0.00,Wunderground v.1.15,2013-09-04 18:33:00,
2013-09-04 13:38:00,80.3,62.7,30.12,NNE,13,7.0,10.0,55,0.00,,,0.00,Wunderground v.1.15,2013-09-04 18:38:00,
2013-09-04 13:43:00,80.3,62.7,30.11,North,9,3.0,9.0,55,0.00,,,0.00,Wunderground v.1.15,2013-09-04 18:43:00,
2013-09-04 13:48:00,80.4,63.3,30.11,NW,313,7.0,9.0,56,0.00,,,0.00,Wunderground v.1.15,2013-09-04 18:48:00,
2013-09-04 13:53:00,80.5,62.3,30.11,NNW,340,3.0,6.0,54,0.00,,,0.00,Wunderground v.1.15,2013-09-04 18:53:00,
2013-09-04 13:58:00,80.5,62.8,30.11,NNE,16,4.0,12.0,55,0.00,,,0.00,Wunderground v.1.15,2013-09-04 18:58:00,
2013-09-04 14:03:00,80.5,63.9,30.11,NNE,25,5.0,7.0,57,0.00,,,0.00,Wunderground v.1.15,2013-09-04 19:03:00,
2013-09-04 14:08:00,80.7,63.0,30.10,NNW,334,9.0,10.0,55,0.00,,,0.00,Wunderground v.1.15,2013-09-04 19:08:00,
2013-09-04 14:13:00,81.0,63.3,30.10,NNW,347,4.0,7.0,55,0.00,,,0.00,Wunderground v.1.15,2013-09-04 19:13:00,
2013-09-04 14:18:00,81.1,61.3,30.10,NNW,337,1.0,9.0,51,0.00,,,0.00,Wunderground v.1.15,2013-09-04 19:18:00,
2013-09-04 14:23:00,81.3,63.1,30.10,NW,315,5.0,6.0,54,0.00,,,0.00,Wunderground v.1.15,2013-09-04 19:23:00,
2013-09-04 14:28:00,81.8,64.1,30.10,WNW,288,5.0,9.0,55,0.00,,,0.00,Wunderground v.1.15,2013-09-04 19:28:00,
2013-09-04 14:33:00,81.8,63.0,30.09,WNW,298,8.0,8.0,53,0.00,,,0.00,Wunderground v.1.15,2013-09-04 19:33:00,
2013-09-04 14:38:00,81.8,64.1,30.09,NNE,25,6.0,10.0,55,0.00,,,0.00,Wunderground v.1.15,2013-09-04 19:38:00,
2013-09-04 14:43:00,81.7,64.5,30.09,North,7,5.0,7.0,56,0.00,,,0.00,Wunderground v.1.15,2013-09-04 19:43:00,
2013-09-04 14:48:00,81.5,63.3,30.09,NNE,15,6.0,9.0,54,0.00,,,0.00,Wunderground v.1.15,2013-09-04 19:48:00,
2013-09-04 14:53:00,81.3,62.5,30.09,NNE,20,4.0,6.0,53,0.00,,,0.00,Wunderground v.1.15,2013-09-04 19:53:00,
2013-09-04 14:58:00,81.2,63.0,30.09,NNW,337,1.0,7.0,54,0.00,,,0.00,Wunderground v.1.15,2013-09-04 19:58:00,
2013-09-04 15:03:00,81.2,64.0,30.09,NNW,348,9.0,9.0,56,0.00,,,0.00,Wunderground v.1.15,2013-09-04 20:03:00,
2013-09-04 15:08:00,81.6,64.4,30.08,North,11,5.0,10.0,56,0.00,,,0.00,Wunderground v.1.15,2013-09-04 20:08:00,
2013-09-04 15:13:00,81.8,63.5,30.09,North,360,5.0,10.0,54,0.00,,,0.00,Wunderground v.1.15,2013-09-04 20:13:00,
2013-09-04 15:18:00,81.6,64.4,30.08,NNE,19,3.0,10.0,56,0.00,,,0.00,Wunderground v.1.15,2013-09-04 20:18:00,
2013-09-04 15:23:00,81.8,65.1,30.08,North,355,7.0,10.0,57,0.00,,,0.00,Wunderground v.1.15,2013-09-04 20:23:00,
2013-09-04 15:28:00,82.4,64.6,30.08,North,350,4.0,10.0,55,0.00,,,0.00,Wunderground v.1.15,2013-09-04 20:28:00,
2013-09-04 15:33:00,82.7,64.4,30.08,NW,321,5.0,6.0,54,0.00,,,0.00,Wunderground v.1.15,2013-09-04 20:33:00,
2013-09-04 15:38:00,82.8,63.9,30.08,NNW,340,5.0,9.0,53,0.00,,,0.00,Wunderground v.1.15,2013-09-04 20:38:00,
2013-09-04 15:43:00,82.7,64.4,30.08,NW,319,9.0,11.0,54,0.00,,,0.00,Wunderground v.1.15,2013-09-04 20:43:00,
2013-09-04 15:48:00,82.6,63.7,30.08,NNW,337,5.0,11.0,53,0.00,,,0.00,Wunderground v.1.15,2013-09-04 20:48:00,
2013-09-04 15:53:00,82.7,64.4,30.08,NNW,339,10.0,11.0,54,0.00,,,0.00,Wunderground v.1.15,2013-09-04 20:53:00,
2013-09-04 15:58:00,82.8,62.8,30.08,North,353,5.0,11.0,51,0.00,,,0.00,Wunderground v.1.15,2013-09-04 20:58:00,
2013-09-04 16:03:00,82.7,64.4,30.07,NW,306,6.0,9.0,54,0.00,,,0.00,Wunderground v.1.15,2013-09-04 21:03:00,
2013-09-04 16:08:00,82.8,63.4,30.07,NW,322,7.0,11.0,52,0.00,,,0.00,Wunderground v.1.15,2013-09-04 21:08:00,
2013-09-04 16:13:00,83.3,63.3,30.07,NNW,343,5.0,7.0,51,0.00,,,0.00,Wunderground v.1.15,2013-09-04 21:13:00,
2013-09-04 16:18:00,83.1,63.1,30.07,North,359,4.0,7.0,51,0.00,,,0.00,Wunderground v.1.15,2013-09-04 21:18:00,
2013-09-04 16:23:00,83.2,64.3,30.07,NNE,20,5.0,7.0,53,0.00,,,0.00,Wunderground v.1.15,2013-09-04 21:23:00,
2013-09-04 16:28:00,83.2,63.7,30.07,NNW,348,4.0,7.0,52,0.00,,,0.00,Wunderground v.1.15,2013-09-04 21:28:00,
2013-09-04 16:33:00,83.2,63.7,30.08,NNW,333,3.0,5.0,52,0.00,,,0.00,Wunderground v.1.15,2013-09-04 21:33:00,
2013-09-04 16:38:00,83.6,62.4,30.07,NW,319,7.0,7.0,49,0.00,,,0.00,Wunderground v.1.15,2013-09-04 21:38:00,
2013-09-04 16:43:00,83.7,64.2,30.07,NNW,347,4.0,8.0,52,0.00,,,0.00,Wunderground v.1.15,2013-09-04 21:43:00,
2013-09-04 16:48:00,83.7,63.1,30.07,NW,312,4.0,8.0,50,0.00,,,0.00,Wunderground v.1.15,2013-09-04 21:48:00,
2013-09-04 16:53:00,84.1,62.9,30.07,WNW,292,1.0,6.0,49,0.00,,,0.00,Wunderground v.1.15,2013-09-04 21:53:00,
2013-09-04 16:58:00,84.2,62.4,30.07,NNW,345,2.0,6.0,48,0.00,,,0.00,Wunderground v.1.15,2013-09-04 21:58:00,
2013-09-04 17:03:00,84.2,64.1,30.07,NNW,344,2.0,3.0,51,0.00,,,0.00,Wunderground v.1.15,2013-09-04 22:03:00,
2013-09-04 17:08:00,84.1,63.5,30.07,North,6,2.0,8.0,50,0.00,,,0.00,Wunderground v.1.15,2013-09-04 22:08:00,
2013-09-04 17:13:00,84.2,64.7,30.07,NNW,338,3.0,4.0,52,0.00,,,0.00,Wunderground v.1.15,2013-09-04 22:13:00,
2013-09-04 17:18:00,84.3,64.2,30.07,NW,323,2.0,6.0,51,0.00,,,0.00,Wunderground v.1.15,2013-09-04 22:18:00,
2013-09-04 17:23:00,84.0,62.8,30.07,NW,323,3.0,7.0,49,0.00,,,0.00,Wunderground v.1.15,2013-09-04 22:23:00,
2013-09-04 17:28:00,83.7,62.5,30.07,North,352,2.0,7.0,49,0.00,,,0.00,Wunderground v.1.15,2013-09-04 22:28:00,
2013-09-04 17:33:00,83.6,64.7,30.07,NE,40,1.0,6.0,53,0.00,,,0.00,Wunderground v.1.15,2013-09-04 22:33:00,
2013-09-04 17:38:00,83.4,65.5,30.07,NE,34,4.0,6.0,55,0.00,,,0.00,Wunderground v.1.15,2013-09-04 22:38:00,
2013-09-04 17:43:00,83.0,63.6,30.07,NE,34,2.0,3.0,52,0.00,,,0.00,Wunderground v.1.15,2013-09-04 22:43:00,
2013-09-04 17:48:00,82.9,65.1,30.07,North,352,3.0,4.0,55,0.00,,,0.00,Wunderground v.1.15,2013-09-04 22:48:00,
2013-09-04 17:53:00,82.8,66.0,30.07,West,279,6.0,7.0,57,0.00,,,0.00,Wunderground v.1.15,2013-09-04 22:53:00,
2013-09-04 17:58:00,82.6,66.3,30.07,NE,51,5.0,7.0,58,0.00,,,0.00,Wunderground v.1.15,2013-09-04 22:58:00,
2013-09-04 18:03:00,82.3,64.5,30.07,NE,51,6.0,8.0,55,0.00,,,0.00,Wunderground v.1.15,2013-09-04 23:03:00,
2013-09-04 18:08:00,81.8,64.1,30.07,NE,53,7.0,9.0,55,0.00,,,0.00,Wunderground v.1.15,2013-09-04 23:08:00,
2013-09-04 18:13:00,81.3,65.1,30.07,NE,55,6.0,7.0,58,0.00,,,0.00,Wunderground v.1.15,2013-09-04 23:13:00,
2013-09-04 18:18:00,80.9,64.7,30.07,NE,40,5.0,8.0,58,0.00,,,0.00,Wunderground v.1.15,2013-09-04 23:18:00,
2013-09-04 18:23:00,80.5,65.8,30.07,NE,49,6.0,7.0,61,0.00,,,0.00,Wunderground v.1.15,2013-09-04 23:23:00,
2013-09-04 18:28:00,80.0,64.9,30.07,NE,41,5.0,7.0,60,0.00,,,0.00,Wunderground v.1.15,2013-09-04 23:28:00,
2013-09-04 18:33:00,79.5,65.3,30.07,NE,49,4.0,6.0,62,0.00,,,0.00,Wunderground v.1.15,2013-09-04 23:33:00,
2013-09-04 18:38:00,79.1,65.4,30.08,NE,49,3.0,6.0,63,0.00,,,0.00,Wunderground v.1.15,2013-09-04 23:38:00,
2013-09-04 18:43:00,78.9,66.1,30.07,NE,37,2.0,5.0,65,0.00,,,0.00,Wunderground v.1.15,2013-09-04 23:43:00,
2013-09-04 18:48:00,78.7,66.8,30.07,NNE,33,3.0,5.0,67,0.00,,,0.00,Wunderground v.1.15,2013-09-04 23:48:00,
2013-09-04 18:53:00,78.5,64.9,30.07,NNE,31,3.0,4.0,63,0.00,,,0.00,Wunderground v.1.15,2013-09-04 23:53:00,
2013-09-04 18:58:00,78.0,66.2,30.07,NE,34,3.0,5.0,67,0.00,,,0.00,Wunderground v.1.15,2013-09-04 23:58:00,
2013-09-04 19:03:00,77.5,64.4,30.07,NNE,31,5.0,6.0,64,0.00,,,0.00,Wunderground v.1.15,2013-09-05 00:03:00,
2013-09-04 19:08:00,76.9,65.5,30.07,NNE,31,4.0,6.0,68,0.00,,,0.00,Wunderground v.1.15,2013-09-05 00:08:00,
2013-09-04 19:13:00,76.4,65.9,30.08,NNE,25,4.0,6.0,70,0.00,,,0.00,Wunderground v.1.15,2013-09-05 00:13:00,
2013-09-04 19:18:00,76.0,64.7,30.07,NE,37,7.0,10.0,68,0.00,,,0.00,Wunderground v.1.15,2013-09-05 00:18:00,
2013-09-04 19:23:00,75.3,64.4,30.07,NE,37,9.0,11.0,69,0.00,,,0.00,Wunderground v.1.15,2013-09-05 00:23:00,
2013-09-04 19:28:00,74.7,63.9,30.08,NE,42,11.0,11.0,69,0.00,,,0.00,Wunderground v.1.15,2013-09-05 00:28:00,
2013-09-04 19:33:00,74.0,63.6,30.08,NE,47,10.0,11.0,70,0.00,,,0.00,Wunderground v.1.15,2013-09-05 00:33:00,
2013-09-04 19:38:00,73.3,63.7,30.07,NE,47,10.0,12.0,72,0.00,,,0.00,Wunderground v.1.15,2013-09-05 00:38:00,
2013-09-04 19:43:00,72.8,63.6,30.08,NE,49,11.0,12.0,73,0.00,,,0.00,Wunderground v.1.15,2013-09-05 00:43:00,
2013-09-04 19:48:00,72.4,64.0,30.08,NE,47,10.0,12.0,75,0.00,,,0.00,Wunderground v.1.15,2013-09-05 00:48:00,
2013-09-04 19:53:00,72.0,63.3,30.08,NE,48,10.0,11.0,74,0.00,,,0.00,Wunderground v.1.15,2013-09-05 00:53:00,
2013-09-04 19:58:00,71.7,63.4,30.08,NE,48,10.0,11.0,75,0.00,,,0.00,Wunderground v.1.15,2013-09-05 00:58:00,
2013-09-04 20:03:00,71.3,63.3,30.08,NE,47,10.0,10.0,76,0.00,,,0.00,Wunderground v.1.15,2013-09-05 01:03:00,
2013-09-04 20:08:00,71.0,63.8,30.08,NE,49,10.0,11.0,78,0.00,,,0.00,Wunderground v.1.15,2013-09-05 01:08:00,
2013-09-04 20:13:00,70.7,63.5,30.08,NE,49,10.0,11.0,78,0.00,,,0.00,Wunderground v.1.15,2013-09-05 01:13:00,
2013-09-04 20:18:00,70.4,63.2,30.09,NE,49,10.0,11.0,78,0.00,,,0.00,Wunderground v.1.15,2013-09-05 01:18:00,
2013-09-04 20:23:00,70.1,63.6,30.09,NE,51,9.0,10.0,80,0.00,,,0.00,Wunderground v.1.15,2013-09-05 01:23:00,
2013-09-04 20:28:00,69.8,63.3,30.09,NE,49,7.0,10.0,80,0.00,,,0.00,Wunderground v.1.15,2013-09-05 01:28:00,
2013-09-04 20:33:00,69.6,63.5,30.09,NE,47,9.0,9.0,81,0.00,,,0.00,Wunderground v.1.15,2013-09-05 01:33:00,
2013-09-04 20:38:00,69.3,62.9,30.10,NE,46,9.0,9.0,80,0.00,,,0.00,Wunderground v.1.15,2013-09-05 01:38:00,
2013-09-04 20:43:00,69.0,62.9,30.09,NE,49,9.0,10.0,81,0.00,,,0.00,Wunderground v.1.15,2013-09-05 01:43:00,
2013-09-04 20:48:00,68.7,62.3,30.10,NE,51,10.0,10.0,80,0.00,,,0.00,Wunderground v.1.15,2013-09-05 01:48:00,
2013-09-04 20:53:00,68.5,62.4,30.10,NE,51,9.0,10.0,81,0.00,,,0.00,Wunderground v.1.15,2013-09-05 01:53:00,
2013-09-04 20:58:00,68.3,62.6,30.10,NE,51,10.0,10.0,82,0.00,,,0.00,Wunderground v.1.15,2013-09-05 01:58:00,
2013-09-04 21:03:00,68.1,62.7,30.10,NE,50,9.0,10.0,83,0.00,,,0.00,Wunderground v.1.15,2013-09-05 02:03:00,
2013-09-04 21:08:00,67.9,62.9,30.10,NE,53,9.0,10.0,84,0.00,,,0.00,Wunderground v.1.15,2013-09-05 02:08:00,
2013-09-04 21:13:00,67.7,62.7,30.10,NE,52,10.0,10.0,84,0.00,,,0.00,Wunderground v.1.15,2013-09-05 02:13:00,
2013-09-04 21:18:00,67.5,62.5,30.11,NE,52,9.0,10.0,84,0.00,,,0.00,Wunderground v.1.15,2013-09-05 02:18:00,
2013-09-04 21:23:00,67.3,62.6,30.10,NE,50,10.0,10.0,85,0.00,,,0.00,Wunderground v.1.15,2013-09-05 02:23:00,
2013-09-04 21:28:00,67.1,62.4,30.11,NE,54,9.0,10.0,85,0.00,,,0.00,Wunderground v.1.15,2013-09-05 02:28:00,
2013-09-04 21:33:00,66.9,62.6,30.11,NE,53,10.0,10.0,86,0.00,,,0.00,Wunderground v.1.15,2013-09-05 02:33:00,
2013-09-04 21:38:00,66.7,62.4,30.11,NE,51,9.0,11.0,86,0.00,,,0.00,Wunderground v.1.15,2013-09-05 02:38:00,
2013-09-04 21:43:00,66.6,62.3,30.11,NE,51,9.0,10.0,86,0.00,,,0.00,Wunderground v.1.15,2013-09-05 02:43:00,
2013-09-04 21:48:00,66.4,62.1,30.11,NE,53,9.0,10.0,86,0.00,,,0.00,Wunderground v.1.15,2013-09-05 02:48:00,
2013-09-04 21:53:00,66.2,62.2,30.12,NE,53,9.0,10.0,87,0.00,,,0.00,Wunderground v.1.15,2013-09-05 02:53:00,
2013-09-04 21:58:00,66.1,62.1,30.11,NE,47,9.0,10.0,87,0.00,,,0.00,Wunderground v.1.15,2013-09-05 02:58:00,
2013-09-04 22:03:00,65.9,61.9,30.12,NE,47,9.0,9.0,87,0.00,,,0.00,Wunderground v.1.15,2013-09-05 03:03:00,
2013-09-04 22:08:00,65.8,62.1,30.12,NE,49,7.0,9.0,88,0.00,,,0.00,Wunderground v.1.15,2013-09-05 03:08:00,
2013-09-04 22:13:00,65.6,61.9,30.12,NE,47,8.0,9.0,88,0.00,,,0.00,Wunderground v.1.15,2013-09-05 03:13:00,
2013-09-04 22:18:00,65.4,61.8,30.12,NE,51,9.0,10.0,88,0.00,,,0.00,Wunderground v.1.15,2013-09-05 03:18:00,
2013-09-04 22:23:00,65.3,61.7,30.13,NE,55,10.0,10.0,88,0.00,,,0.00,Wunderground v.1.15,2013-09-05 03:23:00,
2013-09-04 22:28:00,65.2,61.6,30.12,NE,53,9.0,10.0,88,0.00,,,0.00,Wunderground v.1.15,2013-09-05 03:28:00,
2013-09-04 22:33:00,65.1,61.8,30.12,NE,53,10.0,10.0,89,0.00,,,0.00,Wunderground v.1.15,2013-09-05 03:33:00,
2013-09-04 22:38:00,65.0,61.7,30.13,NE,49,9.0,10.0,89,0.00,,,0.00,Wunderground v.1.15,2013-09-05 03:38:00,
2013-09-04 22:43:00,64.9,61.6,30.12,NE,47,7.0,9.0,89,0.00,,,0.00,Wunderground v.1.15,2013-09-05 03:43:00,
2013-09-04 22:48:00,64.8,61.5,30.13,NE,47,9.0,9.0,89,0.00,,,0.00,Wunderground v.1.15,2013-09-05 03:48:00,
2013-09-04 22:53:00,64.7,61.4,30.13,NE,44,8.0,9.0,89,0.00,,,0.00,Wunderground v.1.15,2013-09-05 03:53:00,
2013-09-04 22:58:00,64.6,61.6,30.13,NE,44,6.0,9.0,90,0.00,,,0.00,Wunderground v.1.15,2013-09-05 03:58:00,
2013-09-04 23:01:00,64.6,61.6,30.13,NE,45,7.0,7.0,90,0.00,,,0.00,Wunderground v.1.15,2013-09-05 04:01:00,
2013-09-04 23:02:00,64.5,61.2,30.12,NE,43,7.0,8.0,89,0.00,,,0.00,Wunderground v.1.15,2013-09-05 04:02:00,
2013-09-04 23:07:00,64.4,61.1,30.12,NE,43,8.0,9.0,89,0.00,,,0.00,Wunderground v.1.15,2013-09-05 04:07:00,
2013-09-04 23:12:00,64.3,61.3,30.12,NE,43,7.0,8.0,90,0.00,,,0.00,Wunderground v.1.15,2013-09-05 04:12:00,
2013-09-04 23:17:00,64.2,61.2,30.12,NE,45,7.0,9.0,90,0.00,,,0.00,Wunderground v.1.15,2013-09-05 04:17:00,
2013-09-04 23:22:00,64.1,61.1,30.12,NE,39,7.0,8.0,90,0.00,,,0.00,Wunderground v.1.15,2013-09-05 04:22:00,
2013-09-04 23:27:00,64.0,61.0,30.13,NE,41,7.0,8.0,90,0.00,,,0.00,Wunderground v.1.15,2013-09-05 04:27:00,
2013-09-04 23:32:00,63.9,60.9,30.12,NE,46,9.0,10.0,90,0.00,,,0.00,Wunderground v.1.15,2013-09-05 04:32:00,
2013-09-04 23:37:00,63.9,61.2,30.13,NE,51,9.0,10.0,91,0.00,,,0.00,Wunderground v.1.15,2013-09-05 04:37:00,
2013-09-04 23:42:00,63.8,61.1,30.12,NE,47,9.0,10.0,91,0.00,,,0.00,Wunderground v.1.15,2013-09-05 04:42:00,
2013-09-04 23:47:00,63.7,61.0,30.13,NE,51,11.0,11.0,91,0.00,,,0.00,Wunderground v.1.15,2013-09-05 04:47:00,
2013-09-04 23:52:00,63.6,60.9,30.12,NE,53,11.0,12.0,91,0.00,,,0.00,Wunderground v.1.15,2013-09-05 04:52:00,
2013-09-04 23:57:00,63.6,60.9,30.12,West,279,12.0,12.0,91,0.00,,,0.00,Wunderground v.1.15,2013-09-05 04:57:00,